| time (UTC) | temp F | wind direction | speed knots | gust knots | rain 1hr in | rain 24hr in | rain mn in | humidity % | barometer mb |
| 20260503230012 | 76 | 39 | 1.7 | 5.2 | 0.00 | 0.00 | 0.00 | 47 | 1012.8 |
| 20260503224513 | 76 | 34 | 0.0 | 6.1 | 0.00 | 0.00 | 0.00 | 45 | 1012.9 |
| 20260503223008 | 76 | 340 | 0.9 | 6.1 | 0.00 | 0.00 | 0.00 | 46 | 1013.1 |
| 20260503221506 | 75 | 18 | 1.7 | 5.2 | 0.00 | 0.00 | 0.00 | 45 | 1013.3 |
| 20260503220019 | 75 | 18 | 0.0 | 7.8 | 0.00 | 0.00 | 0.00 | 46 | 1013.4 |
| 20260503214502 | 75 | 37 | 0.9 | 7.8 | 0.00 | 0.00 | 0.00 | 48 | 1013.5 |
| 20260503213111 | 73 | 358 | 2.6 | 8.7 | 0.00 | 0.00 | 0.00 | 47 | 1013.6 |
| 20260503211558 | 74 | 11 | 1.7 | 6.1 | 0.00 | 0.00 | 0.00 | 49 | 1013.7 |
| 20260503204554 | 72 | 8 | 1.7 | 7.8 | 0.00 | 0.00 | 0.00 | 49 | 1014.2 |
| 20260503203055 | 72 | 20 | 2.6 | 7.8 | 0.00 | 0.00 | 0.00 | 51 | 1014.5 |
| 20260503201548 | 72 | 22 | 2.6 | 7.8 | 0.00 | 0.00 | 0.00 | 52 | 1014.8 |
| 20260503200050 | 73 | 346 | 0.9 | 4.3 | 0.00 | 0.00 | 0.00 | 54 | 1015.0 |
| 20260503194545 | 72 | 38 | 1.7 | 5.2 | 0.00 | 0.00 | 0.00 | 53 | 1015.0 |
| 20260503193049 | 71 | 31 | 1.7 | 6.1 | 0.00 | 0.00 | 0.00 | 52 | 1015.1 |
| 20260503191543 | 72 | 340 | 1.7 | 5.2 | 0.00 | 0.00 | 0.00 | 54 | 1015.2 |
| 20260503190046 | 71 | 30 | 1.7 | 7.0 | 0.00 | 0.00 | 0.00 | 53 | 1015.3 |
| 20260503184542 | 71 | 6 | 0.9 | 6.1 | 0.00 | 0.00 | 0.00 | 54 | 1015.5 |
| 20260503183051 | 70 | 24 | 1.7 | 7.0 | 0.00 | 0.00 | 0.00 | 53 | 1015.5 |
| 20260503181533 | 69 | 48 | 1.7 | 6.1 | 0.00 | 0.00 | 0.00 | 54 | 1015.7 |
| 20260503180031 | 69 | 30 | 0.9 | 4.3 | 0.00 | 0.00 | 0.00 | 54 | 1015.7 |
| 20260503174530 | 68 | 69 | 0.0 | 6.1 | 0.00 | 0.00 | 0.00 | 57 | 1015.7 |
| 20260503173030 | 68 | 37 | 0.9 | 5.2 | 0.00 | 0.00 | 0.00 | 57 | 1015.8 |
| 20260503171527 | 68 | 6 | 0.9 | 4.3 | 0.00 | 0.00 | 0.00 | 57 | 1016.0 |
| 20260503081554 | 67 | 288 | 0.0 | 0.0 | 0.00 | 0.00 | 0.00 | 50 | 1016.0 |
| 20260503071529 | 66 | 288 | 0.0 | 0.9 | 0.00 | 0.00 | 0.00 | 58 | 1016.0 |
| 20260503054523 | 65 | 199 | 0.0 | 0.0 | 0.00 | 0.00 | 0.00 | 60 | 1015.9 |
| 20260503053023 | 66 | 199 | 0.0 | 0.9 | 0.00 | 0.00 | 0.00 | 59 | 1015.9 |
| 20260503051522 | 65 | 250 | 0.0 | 0.9 | 0.00 | 0.00 | 0.00 | 58 | 1016.0 |
| 20260503050030 | 65 | 230 | 0.0 | 0.9 | 0.00 | 0.00 | 0.00 | 59 | 1015.9 |
| 20260503044520 | 64 | 189 | 0.0 | 0.9 | 0.00 | 0.00 | 0.00 | 58 | 1015.8 |
| 20260503043020 | 64 | 228 | 0.0 | 0.9 | 0.00 | 0.00 | 0.00 | 58 | 1015.6 |
| 20260503041520 | 64 | 224 | 0.0 | 1.7 | 0.00 | 0.00 | 0.00 | 60 | 1015.6 |
| 20260503040020 | 64 | 215 | 0.0 | 0.9 | 0.00 | 0.00 | 0.00 | 63 | 1015.4 |
| 20260503034532 | 64 | 205 | 0.0 | 0.0 | 0.00 | 0.00 | 0.00 | 61 | 1015.1 |
| 20260503033026 | 65 | 199 | 0.0 | 0.0 | 0.00 | 0.00 | 0.00 | 61 | 1015.0 |
| 20260503031518 | 66 | 241 | 0.0 | 0.9 | 0.00 | 0.00 | 0.00 | 59 | 1014.9 |
| 20260503030018 | 67 | 241 | 0.0 | 1.7 | 0.00 | 0.00 | 0.00 | 58 | 1014.9 |
| 20260503024516 | 68 | 207 | 0.0 | 0.9 | 0.00 | 0.00 | 0.00 | 57 | 1014.9 |
| 20260503023015 | 70 | 216 | 0.0 | 1.7 | 0.00 | 0.00 | 0.00 | 54 | 1015.0 |
| 20260503021515 | 71 | 207 | 0.0 | 1.7 | 0.00 | 0.00 | 0.00 | 52 | 1014.9 |
| 20260503020014 | 72 | 172 | 0.0 | 2.6 | 0.00 | 0.00 | 0.00 | 53 | 1014.8 |
| 20260503014519 | 72 | 225 | 0.0 | 2.6 | 0.00 | 0.00 | 0.00 | 53 | 1014.9 |
| 20260503013021 | 74 | 219 | 0.0 | 1.7 | 0.00 | 0.00 | 0.00 | 51 | 1015.1 |
| 20260503011509 | 75 | 179 | 0.0 | 2.6 | 0.00 | 0.00 | 0.00 | 51 | 1015.2 |
| 20260503010007 | 75 | 136 | 0.0 | 1.7 | 0.00 | 0.00 | 0.00 | 52 | 1015.4 |
| 20260503004505 | 76 | 224 | 0.0 | 1.7 | 0.00 | 0.00 | 0.00 | 52 | 1015.5 |
| 20260503003003 | 75 | 192 | 0.0 | 2.6 | 0.00 | 0.00 | 0.00 | 54 | 1015.6 |
| 20260503001501 | 74 | 212 | 0.9 | 2.6 | 0.00 | 0.00 | 0.00 | 54 | 1015.8 |
| 20260503000108 | 73 | 169 | 0.0 | 1.7 | 0.00 | 0.00 | 0.00 | 55 | 1015.8 |
| 20260502234614 | 72 | 221 | 0.0 | 1.7 | 0.00 | 0.00 | 0.00 | 56 | 1016.2 |
| 20260502233109 | 72 | 200 | 0.0 | 2.6 | 0.00 | 0.00 | 0.00 | 56 | 1016.2 |
| 20260502231606 | 72 | 248 | 0.0 | 2.6 | 0.00 | 0.00 | 0.00 | 57 | 1016.6 |